Погода в Корочке

Россия / Курская область     51°05′17″N   35°43′05″E
темп.,
°C
ветер,
м/с
пор.,
м/с
влажн.,
%
обл.,
%
осадки,
мм/ч
давл.,
гПа
погр.,
м
19 июня, сб
сб1900:00+17всв512860 0.0 1023320
03:00+15всв411930 0.0 1023238
06:00+16всв410900 0.0 1023240
09:00+22в69740 0.0 1023485
12:00+24вюв79640 0.0 1023937
15:00+25в78650 0.0 10221179
18:00+23в68750 0.0 1021866
21:00+18в410902 0.0 1022247
20 июня, вс
вс2000:00+16в410938 0.0 1022201
03:00+15в41091100 0.0 1022200
06:00+16в5138546 0.0 1021287
09:00+20в61170100 0.0 1021502
12:00+24в7960100 0.0 1020793
15:00+24в696687 0.0 1019866
18:00+23в61173100 0.0 1018682
21:00+20всв51381100 0.0 1018375
21 июня, пн
пн2100:00+18в5148420 0.0 1018293
03:00+18в41278100 0.0 1016262
06:00+17в4128299 0.0 1016249
09:00+23вюв5126990 0.0 1016388
12:00+27вюв6115738 0.0 1016770
15:00+27вюв711635 0.0 1016933
18:00+25вюв612702 0.0 1016733
21:00+20в413870 0.0 1016274
22 июня, вт
вт2200:00+19в414830 0.0 1016259
03:00+18в41379100 0.0 1016231
06:00+18вюв4128266 0.0 1017222
09:00+24вюв5116727 0.0 1017394
12:00+27вюв6115894 0.0 1017893
15:00+28вюв585895 0.0 10171142
18:00+26в5107238 0.0 1017499
21:00+22в41288100 0.0 1017245
23 июня, ср
ср2300:00+22в515836 0.0 1016291
03:00+21в5147832 0.0 1016282
06:00+20в615801 0.0 1017341
09:00+25в611700 0.0 1016450
12:00+28вюв6105535 0.0 1017751
15:00+30вюв5957100 0.0 10161001
18:00+28вюв486996 0.0 1017423
21:00+23в3484100 0.0 101858